TimeCEST,TemperatureF,Dew PointF,Humidity,Sea Level PressureIn,VisibilityMPH,Wind Direction,Wind SpeedMPH,Gust SpeedMPH,PrecipitationIn,Events,Conditions,WindDirDegrees,DateUTC
12:25 AM,53.6,51.8,94,29.65,3.1,SSW,13.8,-,N/A,,Drizzle,210,2013-09-19 22:25:00
12:55 AM,53.6,51.8,94,29.65,5.0,SSW,12.7,-,N/A,,Mostly Cloudy,210,2013-09-19 22:55:00
1:25 AM,53.6,53.6,100,29.65,4.3,SW,9.2,-,N/A,,Overcast,220,2013-09-19 23:25:00
1:55 AM,55.4,53.6,94,29.68,3.1,SW,11.5,-,N/A,Rain,Light Rain,230,2013-09-19 23:55:00
2:00 AM,55,54,94,29.69,3,WSW,8.9,,,Rain,Light Rain Showers,240,2013-09-20 00:00:00
2:25 AM,55.4,53.6,94,29.68,3.7,WSW,6.9,-,N/A,,Mostly Cloudy,240,2013-09-20 00:25:00
2:55 AM,55.4,53.6,94,29.68,3.1,SW,9.2,-,N/A,,Mostly Cloudy,230,2013-09-20 00:55:00
3:25 AM,55.4,53.6,94,29.68,3.1,WSW,6.9,-,N/A,,Scattered Clouds,240,2013-09-20 01:25:00
3:55 AM,55.4,55.4,100,29.68,4.3,WSW,9.2,-,N/A,,Unknown,240,2013-09-20 01:55:00
4:25 AM,55.4,53.6,94,29.68,6.2,SW,10.4,-,N/A,,Scattered Clouds,230,2013-09-20 02:25:00
4:55 AM,55.4,53.6,94,29.71,6.2,WSW,9.2,-,N/A,,Scattered Clouds,240,2013-09-20 02:55:00
5:25 AM,55.4,53.6,94,29.71,6.2,WSW,6.9,-,N/A,,Partly Cloudy,250,2013-09-20 03:25:00
5:55 AM,55.4,53.6,94,29.71,6.2,West,6.9,-,N/A,,Partly Cloudy,260,2013-09-20 03:55:00
6:25 AM,55.4,53.6,94,29.71,6.2,West,6.9,-,N/A,,Scattered Clouds,260,2013-09-20 04:25:00
6:55 AM,55.4,51.8,88,29.74,6.2,WSW,6.9,-,N/A,,Partly Cloudy,250,2013-09-20 04:55:00
7:25 AM,55.4,51.8,88,29.74,6.2,WSW,6.9,-,N/A,,Mostly Cloudy,240,2013-09-20 05:25:00
7:55 AM,55.4,53.6,94,29.74,6.2,WSW,5.8,-,N/A,,Mostly Cloudy,240,2013-09-20 05:55:00
8:00 AM,55,53,92,29.77,7,WSW,6.7,,,Rain,Rain,240,2013-09-20 06:00:00
8:25 AM,55.4,53.6,94,29.77,6.2,SW,6.9,-,N/A,,Mostly Cloudy,230,2013-09-20 06:25:00
8:55 AM,55.4,53.6,94,29.77,6.2,WSW,8.1,-,N/A,,Partly Cloudy,240,2013-09-20 06:55:00
9:25 AM,57.2,53.6,88,29.77,6.2,WSW,10.4,-,N/A,,Mostly Cloudy,250,2013-09-20 07:25:00
9:55 AM,57.2,53.6,88,29.77,6.2,West,9.2,-,N/A,,Scattered Clouds,260,2013-09-20 07:55:00
10:25 AM,59.0,53.6,82,29.80,6.2,West,10.4,-,N/A,,Scattered Clouds,260,2013-09-20 08:25:00
10:55 AM,59.0,55.4,88,29.86,6.2,West,11.5,-,N/A,,Overcast,260,2013-09-20 08:55:00
11:00 AM,58,55,86,29.87,6,West,13.4,,,,Mist,260,2013-09-20 09:00:00
11:25 AM,59.0,53.6,82,29.86,6.2,West,11.5,-,N/A,,Scattered Clouds,260,2013-09-20 09:25:00
11:55 AM,59.0,53.6,82,29.86,6.2,West,10.4,-,N/A,,Unknown,280,2013-09-20 09:55:00
12:25 PM,59.0,53.6,82,29.89,6.2,West,13.8,-,N/A,,Mostly Cloudy,280,2013-09-20 10:25:00
12:55 PM,62.6,55.4,77,29.89,6.2,West,11.5,-,N/A,,Mostly Cloudy,280,2013-09-20 10:55:00
1:25 PM,60.8,53.6,77,29.89,6.2,WNW,15.0,-,N/A,,Partly Cloudy,290,2013-09-20 11:25:00
1:55 PM,60.8,51.8,72,29.92,6.2,West,15.0,-,N/A,,Scattered Clouds,280,2013-09-20 11:55:00
2:00 PM,61,52,63,29.94,19,West,15.7,,,,Partly Cloudy,280,2013-09-20 12:00:00
2:25 PM,57.2,53.6,88,29.92,6.2,WNW,9.2,-,N/A,,Overcast,290,2013-09-20 12:25:00
2:55 PM,59.0,53.6,82,29.95,6.2,WNW,9.2,-,N/A,,Scattered Clouds,290,2013-09-20 12:55:00
3:25 PM,59.0,53.6,82,29.95,6.2,WNW,10.4,-,N/A,,Overcast,290,2013-09-20 13:25:00
3:55 PM,59.0,53.6,82,29.95,6.2,NNW,8.1,-,N/A,,Mostly Cloudy,340,2013-09-20 13:55:00
4:25 PM,57.2,53.6,88,29.98,6.2,NNW,8.1,-,N/A,Rain,Light Rain,330,2013-09-20 14:25:00
4:55 PM,55.4,53.6,94,29.98,6.2,WNW,3.5,-,N/A,,Mostly Cloudy,290,2013-09-20 14:55:00
5:00 PM,56,54,91,30.00,12,West,2.2,,,Rain,Rain,270,2013-09-20 15:00:00
5:25 PM,57.2,53.6,88,30.01,6.2,West,5.8,-,N/A,,Overcast,260,2013-09-20 15:25:00
5:55 PM,57.2,53.6,88,30.01,6.2,West,4.6,-,N/A,,Mostly Cloudy,280,2013-09-20 15:55:00
6:25 PM,57.2,53.6,88,30.01,6.2,WNW,5.8,-,N/A,,Mostly Cloudy,290,2013-09-20 16:25:00
6:55 PM,57.2,53.6,88,30.04,3.7,WNW,6.9,-,N/A,,Mostly Cloudy,290,2013-09-20 16:55:00
7:25 PM,55.4,53.6,94,30.04,6.2,West,5.8,-,N/A,,Partly Cloudy,270,2013-09-20 17:25:00
7:55 PM,55.4,53.6,94,30.06,5.0,West,4.6,-,N/A,Rain,Heavy Drizzle,270,2013-09-20 17:55:00
8:00 PM,55,53,92,30.08,4,West,4.5,,,Rain,Heavy Drizzle,270,2013-09-20 18:00:00
8:25 PM,55.4,53.6,94,30.06,6.2,West,5.8,-,N/A,,Mostly Cloudy,270,2013-09-20 18:25:00
8:55 PM,55.4,53.6,94,30.09,6.2,WNW,4.6,-,N/A,,Mostly Cloudy,290,2013-09-20 18:55:00
9:25 PM,55.4,53.6,94,30.09,6.2,West,3.5,-,N/A,,Mostly Cloudy,280,2013-09-20 19:25:00
9:55 PM,53.6,51.8,94,30.09,6.2,West,4.6,-,N/A,,Partly Cloudy,260,2013-09-20 19:55:00
10:25 PM,53.6,51.8,94,30.12,6.2,West,5.8,-,N/A,,Scattered Clouds,260,2013-09-20 20:25:00
10:55 PM,51.8,50.0,94,30.12,6.2,WSW,6.9,-,N/A,,Mostly Cloudy,240,2013-09-20 20:55:00
11:00 PM,52,51,93,30.13,8,WSW,6.7,,,,Mostly Cloudy,240,2013-09-20 21:00:00
11:25 PM,50.0,48.2,94,30.12,5.6,WSW,5.8,-,N/A,,Unknown,240,2013-09-20 21:25:00
11:55 PM,48.2,48.2,100,30.12,5.0,WSW,5.8,-,N/A,,Unknown,240,2013-09-20 21:55:00